Location: Berville
(49.1893°N, 2.0748°E)
Time: 18:15:52
(UTC+00:00)

Cosmos 1417 Rocket - Pass Details

Date: 08 February 2023
Orbit: 952 x 998 km, 83.0° (Epoch: 30 March)

Event Time Altitude Azimuth Distance (km) Brightness Sun altitude
Rises 18:17:29 0° 180° (S) 3,669 7.6 -13.1°
Reaches altitude 10° 18:19:59 10° 179° (S) 2,718 6.9 -13.5°
Maximum altitude 18:26:11 74° 96° (E) 1,008 4.4 -14.5°
Drops below altitude 10° 18:32:22 10° 12° (NNE) 2,706 6.7 -15.5°
Sets 18:34:52 0° 11° (N) 3,652 7.3 -15.9°
